GFSGBSN_prec_cthk_159.txt.gz
RH
55 54 53 52 51 50 52 51 53 54 52 54 54 52 51 53 53 51 51 51 51 52 52 52 50 48 48 47 42 41 42 41 39 38 34 26 18 18 22 22 21 20 21 20 20 22 22
69 66 63 59 58 58 57 56 56 54 55 57 59 58 57 56 56 58 60 60 59 58 54 53 50 49 50 50 42 43 44 42 43 41 39 32 28 25 23 23 22 19 17 18 18 17 17
84 79 74 70 65 64 64 66 68 67 61 63 61 62 61 61 61 69 69 67 65 61 57 53 50 48 50 46 42 43 45 45 45 41 42 36 33 30 28 26 26 26 25 21 19 21 22
93 92 88 84 77 76 77 71 72 71 71 67 66 67 71 71 73 75 74 69 66 61 59 54 51 49 48 44 42 42 44 46 47 45 41 40 37 34 32 31 30 29 29 30 27 27 27
99 96 94 90 91 89 87 83 81 79 75 73 70 78 85 83 81 78 74 69 66 62 60 61 57 55 47 45 44 44 46 47 47 45 44 39 39 38 36 37 37 35 33 31 29 25 26
98 96 95 96 94 92 89 89 90 90 83 80 82 84 82 80 84 81 77 69 65 61 58 57 56 56 49 47 44 45 46 46 49 50 50 45 42 42 41 41 43 38 36 35 31 28 28
96 97 96 93 97 97 97 97 96 93 87 89 90 92 88 84 87 82 80 73 65 64 63 58 54 50 43 46 43 42 45 45 47 49 52 49 48 46 44 42 40 39 39 38 34 32 31
92 93 93 93 93 96 95 95 96 97 96 97 96 93 95 95 90 91 81 76 71 70 63 57 48 49 40 45 42 34 45 49 45 46 47 48 48 45 46 45 45 44 42 38 35 35 34
98 98 93 94 94 90 93 95 93 95 95 94 93 93 97 95 91 86 85 80 77 73 68 55 49 48 47 45 47 35 46 47 47 46 48 50 48 46 45 45 47 44 43 40 38 37 36
98 99 98 98 95 95 94 95 92 89 87 89 89 88 90 93 91 88 85 82 82 80 73 54 51 48 48 50 48 42 42 47 50 47 47 48 45 47 49 49 50 48 41 39 38 38 41
93 97 98 97 95 92 92 91 90 91 91 89 90 85 81 83 85 86 86 89 86 79 81 52 51 51 52 51 46 42 45 48 49 48 49 45 45 49 49 49 50 44 42 41 40 39 36
91 90 90 94 88 87 86 91 88 87 85 84 85 85 84 81 79 80 87 90 89 86 81 56 51 53 58 56 52 45 47 50 50 54 54 49 50 49 44 41 40 37 36 37 39 40 43
77 73 73 76 82 86 89 86 83 84 85 82 78 78 78 75 76 76 85 88 96 90 60 55 54 53 52 50 52 51 47 50 52 59 60 54 52 54 56 56 55 49 45 51 55 57 45
65 66 65 65 64 64 68 77 76 81 77 73 75 73 71 74 75 77 92 92 94 63 65 60 58 57 54 52 51 51 49 50 49 52 51 53 49 44 46 49 53 54 57 60 57 61 50
55 57 55 55 59 59 57 58 59 61 62 68 69 72 68 66 72 75 97 97 69 68 64 63 61 61 58 55 54 54 55 51 49 50 57 56 47 40 38 39 45 47 52 48 58 58 66
42 44 49 52 54 52 54 56 59 63 66 72 74 73 69 78 72 73 89 81 74 65 73 72 68 64 63 59 60 60 55 50 51 50 55 55 57 43 41 39 41 45 49 56 66 67 65
34 34 34 37 38 42 47 46 48 49 59 67 72 72 66 79 84 86 80 69 68 69 78 85 79 74 73 71 70 68 59 54 58 57 60 57 62 49 47 44 45 47 52 55 59 62 71
36 33 32 28 26 26 33 40 45 50 60 73 75 70 58 66 78 78 68 60 67 67 70 77 72 73 76 78 80 82 73 69 66 67 63 63 68 61 56 51 49 49 54 56 70 62 74
44 42 38 35 33 31 31 38 46 56 63 72 85 82 74 71 72 64 48 49 65 69 75 77 76 75 74 77 86 80 79 75 76 77 74 67 68 67 59 57 54 54 55 59 66 70 66
55 50 46 43 39 36 33 35 43 56 62 78 87 92 88 90 79 70 57 54 55 46 57 72 85 86 86 85 85 85 80 76 77 75 79 78 80 70 65 60 64 66 61 63 67 84 75
59 55 52 47 45 40 38 36 37 50 62 76 91 87 88 96 82 82 86 71 60 55 54 56 63 64 77 94 89 89 81 80 78 76 79 82 97 92 74 65 62 62 62 66 70 69 74
79 66 61 57 52 47 45 45 39 44 57 76 87 94 88 98 92 93 99 85 78 60 66 57 64 55 72 80 75 75 78 81 86 77 81 80 89 87 83 79 78 71 68 64 59 60 63
95 88 79 71 65 58 52 49 49 48 61 71 84 92 96 93 91 99 88 79 78 82 71 65 65 67 61 54 71 76 82 89 89 87 97 91 92 95 94 79 75 82 62 64 57 55 51
98 96 92 79 68 62 55 52 51 54 51 61 70 79 92 90 99 96 92 85 83 88 85 80 78 76 60 66 77 82 85 94 96 91 92 99 96 98 96 91 96 68 61 58 57 53 53
97 98 96 89 79 66 56 51 50 48 55 56 56 73 88 98 88 95 93 83 88 90 85 83 74 71 81 92 95 89 79 88 86 83 88 93 96 97 94 84 70 60 52 52 54 49 49
83 89 91 85 77 66 55 50 51 50 51 62 58 62 75 82 89 94 99 94 98 96 95 85 85 82 88 96 99 98 90 94 88 79 79 96 94 89 89 81 76 53 52 53 53 47 52
97 96 95 95 87 74 64 53 46 40 45 62 64 65 70 69 60 81 92 93 93 91 95 98 91 86 88 93 98 97 90 89 91 76 75 87 97 96 88 89 66 55 52 54 57 53 52
93 95 95 93 87 70 57 48 42 40 46 70 67 66 72 64 56 60 72 90 93 88 90 95 98 90 89 95 98 96 93 84 90 85 78 78 87 90 91 89 75 56 57 56 49 48 49
71 75 82 87 81 71 64 62 57 55 58 71 76 73 70 67 55 51 52 61 81 90 99 94 95 92 93 97 97 98 97 85 80 83 81 95 85 84 80 74 64 58 57 53 53 54 50

GFSGBSN_prec_cthk_162.txt.gz
RH
50 47 44 43 44 48 50 51 53 53 53 54 53 53 53 50 48 47 44 47 51 53 54 50 46 47 46 47 43 40 40 42 40 37 35 31 24 23 22 22 22 20 20 20 20 22 22
69 62 58 56 55 54 54 53 54 55 55 56 57 57 54 52 51 49 49 51 56 60 58 56 52 48 47 50 44 40 40 42 41 40 37 35 32 28 23 23 24 22 20 18 19 19 19
84 82 79 76 73 71 67 64 62 59 61 61 64 63 60 56 53 53 52 59 63 63 62 57 53 51 45 44 43 43 39 40 42 41 38 36 35 34 32 29 28 26 25 22 20 19 19
94 90 89 87 84 80 75 71 69 68 72 70 69 67 63 60 57 58 60 63 69 66 63 57 55 54 48 42 44 44 42 39 40 43 41 36 37 36 36 34 33 32 31 30 27 26 26
94 94 95 94 91 90 87 85 81 76 78 78 77 72 67 66 61 61 69 71 71 64 62 61 57 57 51 45 45 47 44 42 43 42 41 38 36 38 39 40 41 39 38 35 32 27 26
95 97 94 95 94 94 90 89 90 88 87 85 81 79 75 73 71 74 76 73 70 66 62 62 60 63 52 49 46 46 48 44 42 43 44 42 40 40 43 45 48 44 40 38 36 33 31
96 96 96 97 94 97 92 91 90 91 88 87 88 87 86 85 85 83 81 76 72 66 64 63 59 56 51 49 45 41 46 46 41 44 45 43 43 43 45 45 43 43 44 43 39 37 34
96 97 95 95 96 95 97 94 93 91 91 93 92 90 93 93 92 92 86 84 78 74 65 61 57 53 49 53 50 42 44 44 43 42 44 44 43 43 45 45 45 46 46 46 41 38 35
98 98 94 96 96 96 96 95 96 96 95 95 97 90 93 93 93 90 93 89 82 80 71 57 52 52 53 53 52 46 47 45 43 45 43 46 43 43 44 46 48 48 49 47 46 41 38
97 98 98 97 96 96 97 98 96 97 97 96 96 95 94 94 92 93 94 93 91 88 79 54 51 49 50 51 52 46 50 47 48 48 49 48 46 46 47 48 50 52 49 48 47 44 44
95 98 97 97 97 97 95 93 93 94 96 97 95 95 94 91 90 91 93 93 94 90 94 54 51 53 53 54 52 45 51 52 51 51 51 49 46 47 48 45 48 47 48 49 48 46 43
96 95 95 94 97 97 95 94 86 93 92 94 94 94 96 94 92 86 87 94 96 94 84 57 52 56 58 56 54 50 53 54 53 57 56 52 50 49 48 46 46 45 44 44 44 43 46
89 92 94 93 95 97 96 95 84 89 88 87 86 88 90 92 90 89 91 93 98 93 59 58 55 53 55 54 58 56 54 56 58 64 65 58 55 55 52 54 53 49 50 55 56 57 47
71 70 72 77 82 84 86 89 89 92 88 85 84 83 82 83 83 82 91 97 96 66 64 59 56 55 53 53 54 56 57 55 55 58 56 58 55 50 51 54 57 59 65 68 64 64 53
65 67 68 67 68 72 72 77 81 86 87 92 88 81 77 77 81 81 88 97 77 68 71 67 63 59 56 56 56 55 56 55 56 55 63 61 54 47 48 48 53 54 56 55 66 68 75
53 52 58 59 62 62 63 66 71 76 79 83 83 83 72 75 82 86 87 77 80 68 76 77 74 69 65 62 66 66 61 55 57 60 60 60 66 53 52 49 45 51 50 58 72 72 70
46 44 45 47 48 52 57 58 63 72 81 86 88 83 75 80 86 89 80 67 66 68 82 81 78 81 81 80 75 76 72 67 66 68 67 68 73 52 51 50 51 52 54 57 59 66 67
50 47 42 40 38 36 38 46 52 60 66 75 85 92 80 83 92 94 75 63 58 58 63 75 72 74 77 83 89 85 74 76 75 84 82 76 77 69 61 59 57 52 53 58 68 64 72
52 46 43 40 36 34 32 35 45 55 64 67 77 89 82 89 85 74 64 58 63 63 66 76 72 71 73 76 83 77 70 61 72 79 94 88 87 79 60 56 62 62 55 58 62 66 73
62 56 51 44 42 39 39 39 41 50 60 70 81 87 89 91 87 72 69 61 58 47 54 66 71 75 82 88 86 88 79 77 79 81 85 92 97 97 86 69 71 67 65 65 64 77 74
71 63 58 57 51 47 44 42 41 48 59 77 91 92 91 96 89 97 92 77 68 62 57 59 61 55 62 78 77 83 77 84 84 85 85 91 98 98 96 87 86 86 68 67 69 69 75
87 79 68 57 53 54 50 45 49 46 60 74 93 93 94 96 91 99 99 96 80 71 78 71 72 67 73 76 69 64 74 76 81 81 84 84 93 89 89 81 86 88 82 74 68 66 70
94 95 89 76 64 61 58 51 54 52 50 61 67 85 98 85 98 98 98 85 79 90 93 85 85 86 76 61 68 65 72 68 77 85 88 95 98 93 87 76 85 97 77 83 73 65 67
98 98 97 93 82 71 63 63 60 59 57 59 63 65 75 92 94 95 87 86 88 93 94 91 92 90 70 81 80 77 71 73 76 72 82 88 93 98 93 96 96 68 63 67 70 68 61
97 97 98 97 96 90 82 74 73 70 67 68 65 71 83 84 83 81 81 85 86 89 98 90 85 86 88 91 93 97 94 85 64 63 70 81 95 98 98 97 87 72 66 68 70 62 60
77 90 95 98 99 97 91 83 74 70 68 69 70 74 73 76 66 76 98 93 85 89 93 86 86 87 93 97 97 93 94 93 88 77 69 77 90 97 98 96 93 65 56 58 58 54 53
71 73 80 91 95 97 96 91 82 77 74 73 67 71 79 76 57 65 77 90 96 96 96 91 91 92 96 98 98 96 85 85 94 83 82 84 89 93 98 96 84 67 56 54 59 56 56
78 78 84 88 92 93 94 92 84 76 70 69 63 68 72 70 63 60 60 63 76 93 98 97 97 92 98 98 96 89 94 91 88 77 77 83 89 93 98 97 94 68 61 53 61 59 48
84 79 85 96 98 98 98 96 84 76 68 66 58 58 69 79 66 62 56 56 62 63 81 90 97 99 98 99 95 95 98 94 82 80 76 89 88 93 92 90 79 71 65 53 55 57 55

GFSGBSN_prec_cthk_165.txt.gz
RH
58 55 50 46 45 45 44 44 45 47 52 54 56 56 56 54 51 48 46 46 45 43 42 44 46 46 43 44 42 43 41 40 39 37 38 35 29 21 21 24 23 21 22 21 21 23 22
68 65 63 61 58 55 51 50 50 51 53 55 56 58 57 57 55 51 49 49 48 46 46 48 52 50 48 45 41 42 42 43 39 39 38 37 33 29 24 24 23 23 23 22 20 21 22
83 83 83 79 76 75 72 71 69 70 69 65 64 62 61 60 58 55 51 51 50 49 49 52 55 51 50 45 39 40 42 43 42 39 39 37 36 33 30 28 27 28 27 25 22 20 19
88 90 89 89 83 84 87 86 82 76 75 73 70 68 67 67 66 62 58 53 54 52 51 56 57 53 47 48 44 44 42 44 43 43 42 38 36 36 35 32 32 31 32 31 28 28 27
96 93 90 91 89 91 92 91 90 86 85 77 77 76 75 73 71 64 62 58 58 57 58 60 59 57 50 48 47 47 45 44 46 45 45 42 38 35 36 36 36 37 36 36 34 30 29
94 94 92 91 90 92 93 96 95 92 91 90 82 85 83 81 78 72 68 68 61 63 63 63 59 61 51 49 48 47 47 44 45 47 45 44 42 37 36 38 39 40 38 37 37 35 34
98 95 92 95 93 94 94 95 95 95 94 93 91 87 85 85 85 85 79 77 71 66 67 64 63 57 52 49 50 46 46 46 46 46 45 43 42 39 41 42 41 40 39 40 39 38 39
95 95 92 94 94 95 96 98 96 96 95 94 92 93 89 91 86 89 85 82 85 76 72 62 60 56 54 55 53 51 52 50 49 47 44 44 44 40 42 42 42 42 43 43 41 41 38
96 96 97 94 93 96 93 95 96 96 96 95 93 96 92 89 91 90 91 85 87 88 81 61 59 57 57 54 53 51 55 52 49 49 45 45 44 44 45 45 44 44 45 45 45 44 40
97 98 99 98 98 94 97 98 96 97 97 97 96 96 96 94 94 92 92 92 88 90 85 60 55 52 54 55 54 48 52 52 51 48 49 48 46 48 49 48 49 49 47 48 47 48 48
96 95 97 98 98 98 96 98 97 97 94 96 97 96 97 95 94 95 95 96 91 89 90 54 54 54 57 58 58 49 54 56 54 54 51 49 48 50 51 49 52 50 51 51 51 51 50
96 96 96 97 98 96 95 94 94 96 96 94 94 94 94 96 94 95 94 96 92 97 84 60 57 60 62 61 58 55 57 55 57 57 54 54 52 50 51 53 52 51 51 51 50 51 53
92 96 96 97 97 97 95 95 95 95 96 91 93 96 94 94 94 93 95 96 98 93 63 59 57 57 57 59 60 60 62 67 65 67 64 58 55 55 55 57 55 52 54 63 58 57 48
86 80 86 85 88 93 95 95 96 96 96 92 96 92 94 94 94 92 92 98 97 73 72 64 61 60 60 56 57 58 60 62 66 65 63 59 54 56 53 54 56 56 56 63 68 60 52
74 74 77 81 78 79 80 83 86 92 97 97 98 95 93 89 93 93 91 97 86 74 70 72 70 69 64 60 61 58 60 61 63 64 67 65 55 50 51 55 58 61 69 62 75 70 83
56 61 61 58 59 67 71 71 76 78 85 96 98 95 96 98 94 94 95 79 79 80 79 77 75 75 72 71 68 67 65 64 65 67 64 70 68 52 51 49 53 61 57 64 78 85 85
65 61 58 60 55 51 55 59 66 73 79 83 93 94 95 94 97 97 90 76 72 71 83 86 85 89 84 81 77 75 72 70 71 75 77 80 73 53 55 51 52 57 60 63 66 68 74
65 63 56 54 52 56 52 53 56 62 68 76 85 92 83 90 96 96 86 76 67 64 76 78 78 90 92 86 89 90 80 78 78 81 81 87 94 71 59 57 55 57 58 62 71 68 72
66 59 59 59 57 55 53 49 48 57 70 74 84 89 89 94 98 93 93 84 80 72 73 75 81 79 80 75 81 70 66 63 70 76 80 84 96 91 66 57 61 64 65 65 65 69 74
76 68 58 52 51 52 50 46 42 51 63 75 87 89 87 93 84 88 83 83 80 69 69 74 76 77 77 76 78 79 77 75 81 83 90 97 95 91 90 76 77 79 80 79 76 80 70
89 83 74 66 62 57 57 55 52 49 63 75 92 94 88 92 94 93 91 82 71 70 69 67 65 59 61 70 71 72 69 74 76 78 79 91 98 94 91 93 95 92 90 81 85 78 81
95 90 84 77 65 64 64 60 56 51 59 71 87 94 94 90 93 99 99 97 89 86 85 84 85 72 75 79 74 67 69 71 74 69 73 83 95 90 87 85 90 95 87 78 77 78 77
96 95 92 88 81 68 60 66 61 58 59 68 76 85 98 88 98 97 96 95 95 95 96 84 85 87 92 77 83 72 68 63 60 60 64 75 87 91 90 78 85 93 70 74 72 72 70
96 94 93 95 94 83 67 64 57 64 65 58 67 73 85 95 99 98 93 94 98 96 93 89 91 94 86 92 93 84 78 70 67 60 61 68 76 90 87 86 96 60 58 64 72 71 71
83 97 98 97 98 95 90 78 73 71 70 64 62 65 68 69 70 77 88 91 92 90 91 91 85 87 94 96 98 95 81 78 63 67 70 67 75 81 90 83 78 59 55 64 69 61 73
55 72 90 94 99 98 98 93 82 75 73 77 74 73 73 72 59 63 68 76 80 85 83 74 78 81 92 95 98 95 81 72 63 72 81 87 92 98 91 95 85 50 56 62 69 59 60
62 62 66 85 95 98 98 96 92 87 81 83 82 82 85 83 66 65 65 67 75 94 98 93 90 95 94 96 93 85 80 84 94 86 89 92 96 97 96 96 77 62 70 70 74 61 57
77 76 73 74 83 93 92 98 98 93 84 83 81 82 79 74 65 66 64 62 58 68 79 94 95 98 96 93 96 96 89 86 86 77 81 83 88 87 96 97 91 74 74 80 71 62 56
92 81 83 79 76 82 91 95 97 98 89 85 82 83 83 79 65 61 58 59 62 62 70 80 80 81 84 95 94 98 97 95 87 86 77 87 82 84 91 88 84 89 84 83 73 66 60

GFSGBSN_prec_cthk_168.txt.gz
RH
60 60 58 56 53 51 50 49 47 45 46 47 46 47 50 51 52 52 50 49 47 45 43 39 36 37 41 48 44 38 39 38 37 39 38 37 35 29 22 23 22 22 21 20 20 21 22
67 68 66 63 60 58 57 57 54 53 51 48 48 51 54 57 57 56 53 50 50 50 48 44 41 40 44 50 45 40 38 38 38 39 40 37 36 35 28 23 22 23 22 22 21 20 20
76 75 73 72 71 72 74 72 72 70 70 68 67 67 65 64 61 59 58 56 56 55 52 50 47 45 46 50 46 42 38 38 39 40 40 37 38 37 34 29 25 24 25 24 24 23 22
88 86 83 85 88 86 88 84 84 82 81 79 76 73 71 68 65 63 62 61 59 57 54 52 50 49 48 50 48 45 44 41 40 41 43 41 39 39 37 36 32 29 29 27 25 24 24
92 90 91 91 89 92 90 90 88 90 89 87 85 83 79 74 72 68 67 65 62 60 57 54 54 54 51 51 49 49 47 44 42 45 46 45 41 41 38 39 38 36 32 32 31 30 28
93 93 92 89 91 92 90 91 89 88 91 91 90 91 84 81 77 75 72 69 67 63 61 61 59 59 52 54 51 49 51 46 46 44 45 43 43 42 39 40 36 37 37 36 35 32 31
94 94 94 93 89 91 91 89 91 88 89 92 89 92 89 84 85 79 77 74 71 68 64 62 62 58 56 55 53 49 48 50 45 48 48 48 44 40 39 40 40 37 38 38 38 36 37
95 96 94 91 94 90 91 91 90 90 91 92 92 89 88 90 87 82 80 81 78 76 64 62 60 58 55 59 55 55 52 54 48 45 50 52 47 41 40 42 43 43 41 40 41 41 41
96 96 93 93 92 91 91 92 90 90 89 93 94 92 91 85 86 85 81 82 81 78 74 59 57 56 58 58 54 56 55 54 54 51 49 49 46 46 42 43 44 43 45 45 45 44 41
98 98 95 94 90 93 97 97 97 95 94 91 91 92 91 91 91 90 87 85 82 82 74 55 57 55 55 57 57 53 57 55 54 51 52 49 48 48 46 44 45 46 47 47 50 51 49
96 97 97 97 97 97 98 97 96 96 96 96 92 96 95 91 92 89 92 89 89 89 85 54 53 55 58 57 57 54 55 60 57 56 54 49 48 49 48 47 52 49 52 52 51 53 51
98 97 96 96 97 98 98 98 97 97 97 96 95 95 94 93 91 89 91 93 93 98 85 59 56 60 62 62 59 59 60 58 57 55 55 52 52 49 48 49 53 55 55 53 53 52 53
94 96 97 97 97 97 97 97 96 98 97 97 92 88 92 93 95 92 96 98 99 96 63 60 58 60 57 60 62 61 61 60 58 60 58 54 53 54 53 53 53 54 55 62 60 57 47
88 88 88 94 97 98 98 97 97 97 97 98 97 96 93 90 89 94 96 98 97 67 69 67 63 62 62 60 60 61 62 61 64 63 61 58 55 55 55 56 57 54 54 58 61 56 52
84 84 84 82 88 92 96 97 97 98 98 97 97 97 95 96 95 92 96 98 80 77 75 75 74 73 71 70 71 67 66 66 65 65 68 64 58 57 58 57 59 60 66 61 70 62 75
80 74 73 80 78 79 83 90 93 95 96 97 98 98 95 97 97 97 96 88 82 79 81 78 80 81 76 75 72 68 69 72 76 72 67 73 66 57 58 56 59 61 65 77 78 89 79
83 75 68 68 69 71 70 73 77 81 85 88 93 96 93 96 97 97 85 77 75 81 85 88 86 87 85 84 83 80 77 80 79 76 72 73 78 61 63 56 58 64 64 67 64 67 76
87 80 80 79 73 68 66 66 69 73 79 84 93 95 90 98 99 98 85 73 73 73 79 83 89 93 96 94 95 94 88 88 87 85 81 80 88 76 64 62 64 64 61 65 76 76 70
84 78 77 75 77 72 68 68 66 64 72 81 91 91 92 96 96 97 85 85 84 76 76 77 83 82 81 82 85 79 78 79 82 78 82 92 91 80 60 62 63 67 66 70 71 73 73
94 83 81 79 68 68 67 70 64 58 66 74 85 93 88 98 93 90 87 86 90 82 85 83 80 81 80 78 80 80 74 72 77 82 87 94 97 96 91 74 84 90 77 80 89 97 77
94 91 90 87 72 67 66 65 63 58 59 74 84 92 85 93 95 97 86 90 88 85 86 84 85 77 73 78 76 78 74 70 72 73 78 89 94 82 80 77 72 80 86 81 87 87 94
92 92 93 88 84 73 69 63 62 59 60 75 87 98 91 88 88 89 97 97 81 76 86 84 83 73 78 78 71 62 61 62 60 67 68 72 82 76 78 73 79 82 74 71 75 74 78
90 86 92 97 88 76 68 69 70 62 59 77 81 91 98 96 86 92 92 90 96 94 98 89 91 92 88 79 81 79 82 71 64 65 65 67 71 73 75 62 69 88 62 67 63 61 68
85 93 92 97 96 92 78 69 67 69 66 67 74 78 88 90 97 90 92 92 94 96 98 96 96 97 91 90 89 88 92 75 68 63 68 69 73 77 77 69 89 46 41 49 53 54 61
57 83 94 98 97 97 93 81 70 63 70 77 66 72 88 84 87 96 94 93 93 93 95 91 86 85 94 89 94 98 85 80 60 55 63 65 70 86 89 70 56 48 39 51 64 49 57
53 46 77 96 98 97 98 95 86 70 64 74 74 70 72 70 63 72 73 78 79 81 80 74 80 85 85 83 96 94 83 72 65 66 66 73 79 96 87 85 68 45 64 60 63 61 70
70 55 49 70 94 98 98 97 96 87 79 80 86 80 81 72 66 62 65 69 69 67 73 81 96 91 92 89 92 84 77 73 70 64 75 87 94 94 90 96 94 72 61 62 69 67 62
95 77 64 54 68 91 94 95 97 97 84 84 88 84 84 85 78 75 72 69 71 69 72 75 83 89 95 98 97 95 91 77 77 72 70 71 86 81 85 90 78 72 71 72 77 72 76
99 96 81 72 65 72 86 92 99 96 97 95 89 80 78 76 69 65 64 62 66 68 74 74 70 74 82 91 94 85 83 90 95 87 78 81 74 77 84 83 87 86 84 86 86 89 80

GFSGBSN_prec_cthk_171.txt.gz
RH
53 54 52 50 50 49 50 51 53 50 49 48 46 46 44 43 42 44 47 48 49 49 46 44 42 38 34 35 36 43 43 39 37 38 38 36 34 32 30 23 25 27 24 24 21 20 20
67 66 62 61 59 58 56 58 57 55 51 52 53 53 51 51 52 56 57 56 55 54 52 49 49 47 46 42 38 42 43 43 40 38 41 40 35 31 30 29 26 25 26 24 23 20 20
78 77 74 72 70 68 63 63 62 62 62 64 66 64 62 64 63 62 62 61 58 56 54 54 51 50 49 44 39 43 46 46 41 38 38 41 36 34 31 31 29 27 24 23 24 26 24
86 85 84 82 81 77 74 72 74 72 72 73 73 73 71 72 70 68 65 64 62 59 58 56 53 52 50 44 44 43 46 48 43 39 39 40 36 36 35 35 34 32 29 26 25 27 28
91 90 91 91 89 87 84 83 83 81 80 79 78 79 77 75 73 73 73 68 68 64 61 59 57 59 51 47 46 48 48 46 47 45 42 42 39 37 38 37 37 38 36 34 34 29 30
96 94 96 94 92 91 91 89 87 84 81 81 80 80 79 78 77 76 76 75 73 67 63 61 61 63 54 50 52 50 50 50 47 49 46 44 42 39 36 39 39 40 43 40 36 40 35
98 95 96 94 96 97 95 90 91 87 85 83 79 81 79 81 81 79 80 83 77 74 72 63 62 57 50 54 53 55 50 52 50 50 48 48 48 41 38 43 39 36 38 39 39 43 39
96 95 96 99 96 95 95 94 93 90 85 82 82 82 83 84 83 82 81 83 79 78 70 64 58 54 50 52 52 50 57 52 54 50 50 51 44 44 42 43 45 42 40 40 39 40 43
99 99 97 96 98 96 96 94 93 91 89 85 86 83 85 81 82 83 82 83 81 79 75 61 55 50 51 52 47 48 57 56 56 55 52 51 44 47 47 46 44 43 40 42 41 46 44
99 98 99 98 97 96 95 94 93 89 91 87 89 88 88 83 83 82 84 84 82 81 79 55 55 52 50 52 47 48 54 56 58 54 57 51 50 48 49 46 46 43 45 45 46 47 44
98 97 97 97 97 98 98 97 99 94 94 94 94 97 93 90 90 88 90 87 87 88 92 57 54 53 55 53 53 49 53 56 56 57 59 47 50 50 48 44 53 46 52 51 52 54 51
97 97 98 97 98 98 97 98 98 97 96 96 98 96 95 91 91 91 93 92 93 99 89 62 54 54 56 56 54 57 57 57 58 60 58 54 55 54 51 50 50 52 58 58 59 60 61
96 97 97 97 97 98 97 98 98 98 97 97 97 97 96 97 96 96 95 97 99 95 60 61 55 55 58 59 60 59 60 62 62 63 57 53 52 51 50 49 48 51 59 68 68 65 53
97 93 92 93 92 96 97 98 98 98 97 96 97 98 97 95 96 95 96 98 98 68 69 69 58 58 59 59 58 62 64 65 65 60 57 58 57 56 54 52 51 51 58 63 64 62 58
84 87 88 90 90 92 95 97 97 98 98 97 97 98 96 93 95 96 98 98 80 71 74 77 72 67 67 67 67 64 64 67 67 65 65 64 55 59 60 60 56 56 62 56 66 60 71
91 89 86 79 78 81 86 93 97 97 98 98 98 98 96 96 96 98 98 90 76 77 81 77 78 76 72 73 75 73 71 75 74 70 68 71 71 61 63 57 58 62 62 73 93 95 77
89 89 87 86 83 79 70 79 87 96 98 98 98 98 95 98 99 98 94 77 77 85 87 81 82 92 80 83 87 78 76 80 77 74 70 71 74 57 63 60 64 63 67 66 72 80 93
89 95 95 87 80 83 80 69 71 74 87 92 98 98 94 96 99 98 96 77 80 76 85 81 85 92 94 97 95 93 89 90 92 84 78 77 74 70 64 61 65 68 64 67 79 77 74
78 83 90 88 80 79 82 82 73 72 74 83 92 96 93 98 98 98 95 91 90 85 83 79 78 82 86 93 98 89 84 82 89 87 92 93 90 80 62 60 61 68 67 65 65 73 87
76 77 87 83 81 79 81 84 79 75 75 77 91 98 90 99 94 95 96 96 98 93 86 84 79 77 79 80 82 90 78 81 84 82 91 89 87 86 75 67 83 91 88 80 88 98 79
88 86 87 93 84 78 73 72 76 83 81 82 90 96 90 96 92 97 89 94 91 92 89 86 83 79 79 83 81 83 79 75 73 76 83 90 97 88 87 73 72 68 72 72 72 76 86
93 94 97 96 95 88 81 63 61 77 73 84 86 84 89 81 85 91 86 92 87 83 84 93 86 79 80 80 81 70 68 67 67 67 70 75 83 73 74 62 65 68 66 64 65 69 70
90 94 94 93 96 97 86 74 73 61 72 78 88 91 90 76 85 94 93 87 84 91 85 94 94 86 78 78 80 82 79 73 73 75 75 78 81 78 79 57 62 72 62 58 59 55 55
69 82 92 90 92 97 93 82 73 80 70 73 88 92 95 97 91 86 91 89 96 94 94 98 94 95 87 94 87 80 78 68 70 66 70 72 79 76 75 64 84 43 43 45 46 49 49
47 67 84 89 94 95 97 90 76 75 78 80 80 90 96 90 86 95 95 96 93 84 88 94 94 88 95 94 96 86 71 71 60 62 69 68 71 80 90 79 62 50 34 47 51 53 49
67 52 58 78 92 97 98 97 89 74 72 73 87 81 86 90 87 85 95 94 90 90 90 90 93 87 88 90 94 93 75 73 71 68 65 71 66 80 82 83 72 39 57 59 65 61 66
85 73 59 48 73 92 97 98 98 89 76 71 82 89 85 84 77 77 76 77 80 81 81 79 85 81 89 99 92 86 74 65 74 68 67 76 79 89 86 90 78 79 66 64 79 73 76
96 93 77 59 46 73 95 98 98 97 90 80 82 89 82 79 78 81 74 75 77 81 80 82 84 79 80 96 97 93 91 87 82 70 67 62 72 80 78 83 72 75 73 77 85 81 74
97 96 95 77 58 48 81 96 98 99 98 92 88 92 91 83 80 76 76 76 77 80 78 77 77 75 77 90 95 91 89 87 87 77 67 80 73 69 82 84 93 92 82 78 72 73 76